Overview Statistics Trail Chart Weather Telemetry Raw packets
 

This is the latest recevied weather packets stored in our database for station/object K0QED. If no packets are shown the sender has not sent any weather packets the latest 10 day(s).

<< 37 38 39 40 41 42 43 >>
Time Temp. Humidity Pressure Rain* Wind** Luminosity Snow
1788368779 25° C 32% 1026.4 hPa 0 mm - 733 W/m² -
1788368475 25° C 31% 1026.4 hPa 0 mm - 733 W/m² -
1788368175 25° C 32% 1026.2 hPa 0 mm - 734 W/m² -
1788367869 25° C 32% 1026.2 hPa 0 mm - 750 W/m² -
1788367564 25° C 32% 1026.6 hPa 0 mm - 773 W/m² -
1788367263 25.56° C 31% 1026.4 hPa 0 mm - 768 W/m² -
1788366959 25° C 31% 1026.2 hPa 0 mm - 768 W/m² -
1788366657 25° C 32% 1026.5 hPa 0 mm - 734 W/m² -
1788366351 25° C 33% 1026.5 hPa 0 mm - 690 W/m² -
1788366046 24.44° C 33% 1026.2 hPa 0 mm - 673 W/m² -
1788365746 23.89° C 33% 1026.2 hPa 0 mm - 663 W/m² -
1788365442 23.33° C 34% 1026.2 hPa 0 mm - 615 W/m² -
1788365138 23.33° C 34% 1026.4 hPa 0 mm - 571 W/m² -
1788364833 22.78° C 35% 1026.2 hPa 0 mm - 32 W/m² -
1788364526 22.78° C 34% 1026.5 hPa 0 mm - 31 W/m² -
1788364225 22.78° C 35% 1026.2 hPa 0 mm - 36 W/m² -
1788363921 22.22° C 35% 1026.2 hPa 0 mm - 36 W/m² -
1788363615 22.22° C 35% 1026.5 hPa 0 mm - 30 W/m² -
1788363314 22.22° C 35% 1026.5 hPa 0 mm - 30 W/m² -
1788363010 22.22° C 34% 1026.4 hPa 0 mm - 31 W/m² -
1788362706 21.67° C 37% 1026.6 hPa 0 mm - 47 W/m² -
1788362401 21.67° C 35% 1026.4 hPa 0 mm - 29 W/m² -
1788362097 21.67° C 36% 1026.4 hPa 0 mm - 43 W/m² -
1788361796 21.11° C 37% 1026.4 hPa 0 mm - 49 W/m² -
1788361492 21.11° C 37% 1026.5 hPa 0 mm - 43 W/m² -

* Rain latest hour (hover to see other rain measurements)
** Current wind speed in m/s (hover to see current wind gust speed)